This is the latest recevied weather packets stored in our database for station/object KB1FFS. If no packets are shown the sender has not sent any weather packets the latest 10 day(s).
| Time | Temp. | Humidity | Pressure | Rain* | Wind** | Luminosity | Snow |
|---|---|---|---|---|---|---|---|
| 1777569262 | 16.67° C | 87% | 1015.9 hPa | 0 mm | - | 76 W/m² | - |
| 1777568959 | 16.67° C | 87% | 1015.4 hPa | 0 mm | - | 97 W/m² | - |
| 1777568655 | 16.67° C | 88% | 1015.4 hPa | 0 mm | - | 111 W/m² | - |
| 1777568353 | 16.67° C | 88% | 1015.2 hPa | 0 mm | - | 107 W/m² | - |
| 1777568049 | 16.67° C | 88% | 1015 hPa | 0 mm | - | 102 W/m² | - |
| 1777567746 | 16.67° C | 89% | 1015.6 hPa | 0 mm | - | 79 W/m² | - |
| 1777567442 | 16.67° C | 89% | 1015.7 hPa | 0 mm | - | 86 W/m² | - |
| 1777567140 | 16.67° C | 89% | 1015.7 hPa | 0 mm | - | 95 W/m² | - |
| 1777566838 | 16.67° C | 89% | 1015.6 hPa | 0.51 mm | - | 89 W/m² | - |
| 1777566535 | 16.67° C | 88% | 1016 hPa | 1.27 mm | - | 85 W/m² | - |
| 1777566233 | 16.67° C | 88% | 1016.5 hPa | 0.51 mm | - | 115 W/m² | - |
| 1777565930 | 16.67° C | 87% | 1016.6 hPa | 0 mm | - | 106 W/m² | - |
| 1777565625 | 16.67° C | 86% | 1017 hPa | 0 mm | - | 55 W/m² | - |
| 1777565322 | 16.67° C | 86% | 1016.9 hPa | 0 mm | - | 51 W/m² | - |
| 1777565018 | 16.67° C | 85% | 1017.2 hPa | 0 mm | - | 66 W/m² | - |
| 1777564713 | 16.67° C | 84% | 1017.1 hPa | 0 mm | - | 55 W/m² | - |
| 1777564409 | 16.67° C | 84% | 1017.2 hPa | 0 mm | - | 92 W/m² | - |
| 1777564105 | 16.67° C | 84% | 1017.4 hPa | 0 mm | - | 87 W/m² | - |
| 1777563801 | 16.67° C | 84% | 1017.4 hPa | 0 mm | - | 43 W/m² | - |
| 1777563498 | 16.67° C | 84% | 1017.5 hPa | 0 mm | - | 56 W/m² | - |
| 1777563197 | 16.67° C | 84% | 1017.7 hPa | 0 mm | - | 17 W/m² | - |
| 1777562894 | 16.67° C | 84% | 1017.2 hPa | 0 mm | - | 29 W/m² | - |
| 1777562590 | 16.67° C | 83% | 1017.3 hPa | 0 mm | - | 24 W/m² | - |
| 1777562289 | 16.67° C | 82% | 1017.3 hPa | 0 mm | - | 45 W/m² | - |
| 1777561986 | 16.67° C | 82% | 1017.4 hPa | 0 mm | - | 45 W/m² | - |
* Rain latest hour (hover to see other rain measurements)
** Current wind speed in m/s (hover to see current wind gust speed)